[[[{"header":{"parameterUnit":"kt","parameterCategory":2,"dx":1,"dy":1,"la1":30.253999710083008,"la2":30.299108505249023,"lo1":-89.0895004272461,"lo2":-89.04439544677734,"nx":28,"ny":28,"refTime":"2022-10-28T21:00:00:Z","depth":0,"parameterNumber":1,"parameterNumberName":"U-component_of_WINDS"},"data":[2.4626,2.429,2.4035,2.3531,2.3215,2.2823,2.2599,2.2282,2.1962,2.1458,2.112,2.082,2.039,1.9917,1.9532,1.9403,1.9257,1.9327,1.9164,1.9095,1.9067,1.9041,1.9106,1.93,1.93,1.9271,1.9271,1.9271,2.4597,2.4284,2.3944,2.344,2.3143,2.2922,2.2499,2.2263,2.1916,2.1519,2.1172,2.0703,2.0297,1.9831,1.9393,1.922,1.9086,1.912,1.9126,1.906,1.8978,1.905,1.9235,1.9235,1.9235,1.9235,1.9235,1.9235,2.4475,2.4286,2.3831,2.3456,2.3131,2.2793,2.2563,2.2201,2.1858,2.1378,2.113,2.0728,2.0274,1.9614,1.9326,1.8998,1.8911,1.8863,1.8849,1.8843,1.8873,1.8947,1.8911,1.8909,1.8908,1.8906,1.8905,0,2.4306,2.4105,2.376,2.3339,2.3051,2.2697,2.2327,2.2176,2.165,2.1388,2.0985,2.0707,2.0154,1.9739,1.9267,1.897,1.8703,1.8647,1.8612,1.8727,1.8891,1.8796,1.8672,1.8649,1.8646,1.8644,1.8642,1.8641,2.4162,2.3971,2.3368,2.3161,2.2894,2.2565,2.2313,2.1863,2.1615,2.1087,2.0936,2.0516,2.0156,1.9546,1.9112,1.8695,1.8559,1.858,1.8494,1.8614,1.8553,1.8569,1.8543,1.8606,1.861,1.8614,1.8617,0,2.4105,2.3683,2.3301,2.2719,2.2566,2.2387,2.1883,2.1669,2.1338,2.0995,2.0889,2.0365,1.9972,1.9531,1.8991,1.8772,1.8454,1.8334,1.8608,1.8559,1.8531,1.8539,1.8516,1.8487,1.8286,1.8288,1.829,0,2.3814,2.3579,2.2961,2.2762,2.2482,2.2036,2.177,2.1457,2.1061,2.0787,2.0417,2.0167,1.9642,1.9325,1.9,1.8662,1.8561,1.8371,1.8287,1.8402,1.8426,1.8257,1.8247,1.8109,1.8109,1.811,1.811,0,2.3769,2.316,2.2835,2.2627,2.198,2.1835,2.1557,2.1109,2.0864,2.0475,2.0309,1.9888,1.9655,1.9331,1.892,1.8879,1.8497,1.8353,1.8301,1.8312,1.8237,1.8247,1.8342,1.8111,1.8111,1.8111,1.8111,0,2.3467,2.3092,2.2684,2.2135,2.1992,2.1776,2.1333,2.1045,2.0598,2.0381,2.007,1.9768,1.944,1.933,1.8866,1.8928,1.8719,1.8506,1.8494,1.8434,1.8323,1.8432,1.857,1.8565,1.8385,1.8386,1.8388,0,2.3529,2.3004,2.2617,2.2237,2.1933,2.1538,2.1286,2.0903,2.0593,2.0284,1.9936,1.9586,1.9411,1.9238,1.9068,1.8693,1.8613,1.8691,1.8239,1.8228,1.837,1.8492,1.8622,1.859,1.8411,1.8409,1.8407,0,2.3523,2.2742,2.2702,2.2444,2.1869,2.1611,2.1325,2.0881,2.0698,2.0306,2.0049,1.9546,1.939,1.9111,1.8819,1.8665,1.8654,1.8518,1.8499,1.8555,1.8387,1.8512,1.8509,1.849,1.8487,1.8484,1.8426,0,2.316,2.2842,2.2715,2.2164,2.1897,2.1634,2.117,2.0948,2.0697,2.0374,1.999,1.9554,1.9096,1.8975,1.8726,1.8516,1.848,1.8319,1.8175,1.8262,1.823,1.8217,1.8261,1.8253,1.8248,1.8243,0,0,2.3323,2.2858,2.2441,2.2149,2.1896,2.1489,2.1249,2.0954,2.0369,2.0201,2.0119,1.9349,1.8998,1.8577,1.8568,1.8384,1.83,1.8288,1.8225,1.8225,1.8224,1.8199,1.8194,1.8232,1.823,1.8228,1.8226,0,2.3094,2.2758,2.2529,2.2206,2.1714,2.1384,2.1331,2.0768,2.0549,2.0172,1.9835,1.9547,1.8944,1.8614,1.8369,1.8329,1.8086,1.8224,1.836,1.8182,1.8191,1.8196,1.8176,1.8176,1.8212,1.8213,1.8213,0,2.3004,2.2594,2.2435,2.1846,2.1518,2.1214,2.0952,2.0643,2.041,1.9971,1.9602,1.9297,1.8817,1.8483,1.8315,1.8233,1.7918,1.7935,1.7959,1.7929,1.7733,1.7744,1.7754,1.7632,1.7632,1.7632,0,0,2.2869,2.2571,2.1988,2.1762,2.158,2.1086,2.0877,2.0603,2.0186,2.0021,1.9623,1.9224,1.8865,1.864,1.828,1.7981,1.7841,1.7883,1.791,1.7934,1.7919,1.7731,1.7741,1.7631,1.7631,1.7631,0,0,2.2801,2.2118,2.194,2.162,2.1239,2.0644,2.0521,2.0285,1.9916,1.9893,1.9409,1.9281,1.896,1.8672,1.8724,1.8219,1.8087,1.8065,1.842,1.8447,1.8473,1.8548,1.8388,0,0,0,0,0,2.2329,2.2203,2.2049,2.1926,2.1176,2.0733,2.0632,2.0235,2.015,2.0061,1.969,1.9445,1.86,1.8634,1.8516,1.8461,1.7628,1.7629,1.7629,1.8013,1.8048,1.8077,0,0,0,0,0,0,2.2277,2.2129,2.205,2.146,2.1286,2.0733,2.0502,2.0389,2.0149,2.0109,1.9525,1.9426,1.9074,1.8667,1.8567,1.8523,1.8421,1.7629,1.7629,1.7629,1.8025,1.8053,1.8077,0,0,0,0,0,2.2234,2.2114,2.1018,2.1457,2.1307,2.0748,2.0503,2.0407,2.0214,1.9638,1.9533,1.9936,1.9084,1.8971,1.8605,1.8579,1.8488,1.8452,1.7629,1.7629,1.763,1.8039,0,0,0,0,0,0,2.2202,2.202,2.0979,2.0918,2.1476,2.0771,2.0647,2.0425,1.9749,1.9645,2.0026,2.0003,1.9089,1.9001,1.8916,1.8622,1.8542,1.8505,1.8483,1.7629,1.7629,1.763,0,0,0,0,0,0,2.2081,2.1972,2.0947,2.0993,2.0933,2.0794,2.0684,2.0314,1.9747,2.0174,2.0133,2.0024,1.9214,1.9021,1.8954,1.8391,1.8584,1.8549,1.8525,1.8509,1.7629,1.763,0,0,0,0,0,0,2.2028,2.1933,2.1006,2.0961,2.0908,2.0195,2.0458,1.971,1.9796,2.021,1.9792,1.979,1.9241,1.9164,1.8982,1.8451,1.8407,1.8583,1.8559,1.8542,1.8531,0,0,0,0,0,0,0,2.1984,2.2715,2.1341,2.0934,2.0888,2.0356,2.0339,2.0322,1.9796,1.9794,1.9792,1.979,1.8784,1.8745,1.8707,1.8499,0,0,1.8586,1.8569,0,0,0,0,0,0,0,0,2.2745,2.2722,2.1339,2.1327,2.1314,2.0353,2.0339,2.0326,1.9795,1.9794,1.9792,1.9791,1.8773,1.8742,1.8711,0,0,0,0,0,0,0,0,0,0,0,0,0,0,0,2.1338,2.1328,0,2.0351,2.034,2.0329,1.9795,1.9794,1.9793,1.9792,1.8765,1.8739,1.8713,0,0,0,0,0,0,0,0,0,0,0,0,0,0,0,0,0,0,0,0,0,0,0,0,0,0,0,0,0,0,0,0,0,0,0,0,0,0,0,0,0,0,0,0,0,0,0,0,0,0,0,0,0,0,0,0,0,0,0,0,0,0,0,0,0,0,0,0,0]}],[{"header":{"parameterUnit":"kt","parameterCategory":2,"dx":1,"dy":1,"la1":30.253999710083008,"la2":30.299108505249023,"lo1":-89.0895004272461,"lo2":-89.04439544677734,"nx":28,"ny":28,"refTime":"2022-10-28T21:00:00:Z","depth":0,"parameterNumber":2,"parameterNumberName":"V-component_of_WINDS"},"data":[6.6657,6.712,6.7424,6.8094,6.8481,6.8995,6.9277,6.9674,7.007,7.0722,7.1153,7.1512,7.2034,7.2627,7.3114,7.3266,7.3451,7.3391,7.358,7.3564,7.3583,7.3601,7.351,7.3426,7.3426,7.3554,7.3555,7.3555,6.6616,6.7001,6.7444,6.8081,6.8465,6.8706,6.9234,6.9542,6.9996,7.0487,7.0929,7.1531,7.2048,7.2604,7.3156,7.3386,7.3536,7.3514,7.3504,7.3583,7.3577,7.3477,7.3384,7.3384,7.3384,7.3384,7.3384,7.3384,6.6624,6.6889,6.7452,6.794,6.8344,6.8769,6.9079,6.9514,6.9956,7.0565,7.0849,7.1372,7.1928,7.2749,7.3101,7.3523,7.3604,7.368,7.3701,7.3713,7.3683,7.3459,7.3631,7.3633,7.3634,7.3635,7.3636,0,6.6726,6.6963,6.741,6.7947,6.8321,6.8769,6.9234,6.9435,7.0052,7.0391,7.0913,7.1266,7.1965,7.2494,7.3083,7.3442,7.3736,7.3799,7.3855,7.3724,7.353,7.3642,7.3618,7.3793,7.3796,7.3798,7.3799,7.38,6.6758,6.7031,6.7772,6.8045,6.8376,6.8809,6.9133,6.9658,6.9978,7.0632,7.0844,7.138,7.1837,7.2625,7.314,7.3667,7.3816,7.3848,7.3898,7.3759,7.3823,7.3802,7.3835,7.3828,7.3825,7.3822,7.3819,0,6.6748,6.7251,6.7775,6.8486,6.8673,6.8934,6.9547,6.9838,7.0233,7.0689,7.0827,7.1448,7.1954,7.247,7.3152,7.3407,7.3855,7.3985,7.3666,7.3721,7.3804,7.379,7.3985,7.404,7.4129,7.4127,7.4126,0,6.6975,6.7315,6.8047,6.8325,6.8723,6.9243,6.9623,7.0002,7.049,7.0855,7.1268,7.1602,7.2211,7.2621,7.2998,7.3455,7.3584,7.3807,7.3904,7.3773,7.3744,7.3957,7.3961,7.4108,7.4106,7.4105,7.4104,0,6.6907,6.77,6.8154,6.8417,6.9213,6.9415,6.9757,7.0309,7.0623,7.1114,7.1325,7.1859,7.2153,7.2561,7.3039,7.3053,7.3611,7.373,7.3841,7.3828,7.394,7.3927,7.3966,7.4102,7.4102,7.4102,7.4101,0,6.7171,6.7651,6.8233,6.8908,6.9096,6.9396,6.9957,7.0334,7.0887,7.1144,7.1535,7.1875,7.2316,7.2397,7.3015,7.2898,7.3164,7.342,7.3437,7.3512,7.3589,7.3545,7.3527,7.3547,7.3574,7.357,7.3567,0,6.6957,6.768,6.8133,6.8677,6.9084,6.9524,6.9869,7.0346,7.0718,7.1121,7.1535,7.1991,7.2161,7.2377,7.2614,7.3061,7.3212,7.3055,7.3638,7.3652,7.3478,7.3467,7.3336,7.3472,7.3517,7.3522,7.3526,0,6.6856,6.7819,6.7884,6.8208,6.8921,6.9265,6.9659,7.0226,7.0469,7.0961,7.1309,7.1963,7.212,7.2471,7.2806,7.3026,7.3125,7.3166,7.3188,7.3143,7.3535,7.3409,7.343,7.3302,7.3309,7.3315,7.3487,0,6.7143,6.7572,6.7769,6.8465,6.8812,6.9181,6.973,7.0023,7.031,7.0695,7.1216,7.1748,7.233,7.249,7.2774,7.311,7.3137,7.3298,7.342,7.3405,7.3477,7.3505,7.3268,7.3275,7.3281,7.3285,0,0,6.6814,6.7441,6.7928,6.833,6.8653,6.9108,6.9454,6.9823,7.0556,7.0772,7.0842,7.1838,7.2268,7.2845,7.2883,7.3117,7.323,7.3214,7.3407,7.3417,7.343,7.3495,7.3516,7.3295,7.3298,7.33,7.3301,0,6.7034,6.7454,6.7789,6.8193,6.8807,6.92,6.9278,6.997,7.0234,7.0747,7.1119,7.1498,7.228,7.2689,7.2998,7.3157,7.342,7.3292,7.3193,7.3445,7.3448,7.3453,7.3515,7.353,7.3316,7.3315,7.3314,0,6.7035,6.7541,6.7761,6.8515,6.8923,6.9331,6.9591,7.001,7.0321,7.0804,7.1307,7.1676,7.2269,7.2739,7.2972,7.3045,7.356,7.3495,7.3475,7.3514,7.3785,7.3788,7.379,7.3752,7.3752,7.3751,0,0,6.715,6.7551,6.8262,6.8604,6.8834,6.9424,6.9697,7.0013,7.0533,7.0738,7.1221,7.1716,7.218,7.2472,7.2935,7.3373,7.3541,7.3526,7.3506,7.3487,7.3513,7.3779,7.3782,7.3748,7.3748,7.3748,0,0,6.7208,6.8044,6.8241,6.8706,6.9184,6.9912,7.0102,7.0363,7.0835,7.0855,7.1413,7.157,7.2021,7.2371,7.2268,7.2989,7.3097,7.3133,7.2744,7.2726,7.2707,7.2615,7.2613,0,0,0,0,0,6.7716,6.794,6.811,6.827,6.9229,6.9814,6.9942,7.0406,7.0472,7.0613,7.1058,7.1322,7.2431,7.2353,7.2505,7.2617,7.3711,7.3717,7.3724,7.3328,7.3303,7.3282,0,0,0,0,0,0,6.7783,6.7976,6.8106,6.8832,6.9053,6.9811,7.0027,7.016,7.0469,7.0511,7.1227,7.1344,7.1754,7.2307,7.2437,7.2533,7.2571,7.3713,7.3719,7.3724,7.332,7.3299,7.3282,0,0,0,0,0,6.7838,6.7995,6.941,6.8834,6.9025,6.9696,7.0022,7.0135,7.0383,7.1075,7.12,7.0706,7.1743,7.1886,7.2387,7.2462,7.2484,7.2531,7.3717,7.3721,7.3725,7.331,0,0,0,0,0,0,6.788,6.8105,6.9459,6.9535,6.8783,6.9663,6.9817,7.0111,7.0937,7.1062,7.0579,7.0603,7.1739,7.1851,7.1959,7.2411,7.2412,7.2461,7.249,7.372,7.3724,7.3727,0,0,0,0,0,0,6.8025,6.8165,6.9498,6.9409,6.9479,6.963,6.9767,7.026,7.0941,7.0397,7.0443,7.058,7.158,7.1827,7.1912,7.2664,7.2358,7.2404,7.2436,7.2456,7.3723,7.3726,0,0,0,0,0,0,6.8092,6.8215,6.9392,6.9446,6.9508,7.0395,7.0076,7.1034,7.0857,7.0353,7.0855,7.0854,7.1548,7.1645,7.1878,7.2591,7.2646,7.236,7.2391,7.2413,7.2427,0,0,0,0,0,0,0,6.8148,6.722,6.9008,6.9477,6.9531,7.0236,7.0257,7.0278,7.0857,7.0856,7.0855,7.0854,7.2097,7.2147,7.2198,7.2532,0,0,7.2355,7.2377,0,0,0,0,0,0,0,0,6.7179,6.721,6.901,6.9026,6.9041,7.0239,7.0256,7.0273,7.0857,7.0856,7.0855,7.0855,7.2111,7.2151,7.2192,0,0,0,0,0,0,0,0,0,0,0,0,0,0,0,6.9012,6.9025,0,7.0242,7.0256,7.027,7.0857,7.0856,7.0855,7.0855,7.2122,7.2155,7.2189,0,0,0,0,0,0,0,0,0,0,0,0,0,0,0,0,0,0,0,0,0,0,0,0,0,0,0,0,0,0,0,0,0,0,0,0,0,0,0,0,0,0,0,0,0,0,0,0,0,0,0,0,0,0,0,0,0,0,0,0,0,0,0,0,0,0,0,0,0]}]]]